This demonstration page uses our WeatherBlox Daily Observations layout. Learn more.

39.08367, -84.50855

Hourly Observations for October 18, 2019

Temp ( °F °C ) Dew Point ( °F °C ) Humidity (%) Winds ( mph kmh ) Pressure ( in mb ) Visibility ( mi km ) Precip ( " mm )
12:53 am 00:53 Clear 40 4.4 38 3.3 93 93 ENE 3 6 30.05 1018 10 16.0934 0 0
1:53 am 01:53 Clear 38 3.3 37 2.8 97 97 Calm 30.06 1018 10 16.0934 0 0
2:53 am 02:53 Clear 37 2.8 36 2.2 96 96 Calm 30.06 1018 10 16.0934 0 0
3:53 am 03:53 Clear 38 3.3 36 2.2 93 93 ENE 3 6 30.07 1018 10 16.0934 0 0
4:53 am 04:53 Clear 36 2.2 35 1.7 97 97 Calm 30.08 1019 9 14.48406 0 0
5:53 am 05:53 Clear 35 1.7 34 1.1 96 96 NE 3 6 30.09 1019 10 16.0934 0 0
6:53 am 06:53 Clear 34 1.1 33 0.6 97 97 Calm 30.11 1020 10 16.0934 0 0
7:45 am 07:45 Partly Cloudy with Patchy Fog 34 1.1 34 1.1 100 100 NNE 5 7 30.15 1021 10 16.0934 0 0
7:53 am 07:53 Partly Cloudy with Patchy Fog 34 1.1 34 1.1 100 100 NNE 5 7 30.12 1020 7 11.26538 0.001 0.001
8:36 am 08:36 Partly Cloudy with Patchy Fog 35 1.7 35 1.7 100 100 NNE 5 7 30.15 1021 2 3.21868 0 0
8:53 am 08:53 Partly Cloudy with Patchy Fog 36 2.2 36 2.2 100 100 NE 5 7 30.13 1020 2 3.21868 0 0
9:28 am 09:28 Partly Cloudy with Patchy Fog 40 4.4 39 3.9 97 97 NE 5 7 30.16 1021 5 8.0467 0 0
9:53 am 09:53 Sunny 42 5.6 41 5 96 96 ENE 5 7 30.14 1021 10 16.0934 0 0
10:53 am 10:53 Sunny 50 10 42 5.6 74 74 ENE 7 11 30.14 1021 10 16.0934 0 0
11:53 am 11:53 Sunny 54 12.2 40 4.4 59 59 ENE 7 11 30.12 1020 10 16.0934 0 0
12:53 pm 12:53 Sunny 58 14.4 41 5 53 53 NE 7 11 30.1 1019 10 16.0934 0 0
1:53 pm 13:53 Sunny 59 15 41 5 51 51 VRB 3 6 30.08 1019 10 16.0934 0 0
2:53 pm 14:53 Sunny 61 16.1 41 5 48 48 W 5 7 30.06 1018 10 16.0934 0 0
3:53 pm 15:53 Sunny 62 16.7 39 3.9 43 43 WNW 3 6 30.04 1017 10 16.0934 0 0
4:53 pm 16:53 Sunny 63 17.2 39 3.9 41 41 Calm 30.04 1017 10 16.0934 0 0
5:53 pm 17:53 Sunny 61 16.1 39 3.9 44 44 S 5 7 30.03 1017 10 16.0934 0 0
6:53 pm 18:53 Sunny 52 11.1 44 6.7 75 75 E 3 6 30.01 1016 10 16.0934 0 0
7:53 pm 19:53 Clear 49 9.4 42 5.6 77 77 Calm 30.03 1017 10 16.0934 0 0
8:53 pm 20:53 Clear 44 6.7 41 5 89 89 Calm 30.03 1017 10 16.0934 0 0
9:53 pm 21:53 Clear 44 6.7 42 5.6 93 93 Calm 30.03 1017 10 16.0934 0 0
10:53 pm 22:53 Clear 41 5 40 4.4 96 96 Calm 30.02 1017 10 16.0934 0 0
11:53 pm 23:53 Clear 40 4.4 39 3.9 97 97 Calm 30.02 1017 10 16.0934 0 0

Powered by AerisWeather